Regional Weather Roundup
Issued by NWS

Home | Current Version | Previous Version | Text Only | Print | Product List | Glossary Off
Versions: 1 2 3 4 5 6 7 8 9 10 11 12 13 14 15 16 17 18 19 20 21 22 23 24 25 26 27 28 29 30 31 32 33 34 35 36 37 38 39 40 41 42 43 44 45 46 47 48 49 50

000
ASUS43 KIND 191859
RWRIN

WEATHER ROUNDUP FOR INDIANA
NATIONAL WEATHER SERVICE INDIANAPOLIS IN
200 PM EST FRI DEC 19 2014

NOTE: "FAIR" INDICATES FEW OR NO CLOUDS BELOW 12,000 FEET WITH NO
SIGNIFICANT WEATHER AND/OR OBSTRUCTIONS TO VISIBILITY.

* - STATION DOES NOT REPORT WEATHER SUCH AS PRECIPITATION OR FOG.

+ - STATION NOT QUALITY CONTROLLED BY THE NATIONAL WEATHER SERVICE.
    USE DATA WITH CAUTION...ESPECIALLY DEWPOINT AND RELATIVE
    HUMIDITY OBSERVATIONS.

INZ001>003-010>013-019-020-192000-
NORTHWEST INDIANA

CITY           SKY/WX    TMP DP  RH WIND       PRES   REMARKS
GARY /AIRPORT/ CLOUDY    34  19  55 VRB3      30.29F
VALPARAISO     NOT AVBL

$$

LMZ046-743>745-192000-
SOUTHERN LAKE MICHIGAN

STATION/POSITION TIME  TEMP WIND        PRES
                       AIR  DIR/SP/G
                 (UTC) (F)  (DEG/KT/KT) (MB)

$$

INZ004-005-014>016-021>024-192000-
NORTH CENTRAL INDIANA

CITY           SKY/WX    TMP DP  RH WIND       PRES   REMARKS
ELKHART        PTSUNNY   34  18  51 N8        30.25F WCI  27
GOSHEN         PTSUNNY   35  21  56 NW12      30.23F WCI  27
PERU/GRISSOM   CLOUDY    30  30 100 NW5       30.25S WCI  25
SOUTH BEND     CLOUDY    35  25  66 NW6       30.25F WCI  30

$$

INZ006>009-017-018-025>027-192000-
NORTHEAST INDIANA

CITY           SKY/WX    TMP DP  RH WIND       PRES   REMARKS
ANGOLA *+      CLOUDY    28  16  59 CALM      30.23F
FORT WAYNE     PTSUNNY   31  22  69 NW7       30.24F WCI  24

$$

INZ028-029-035-036-043>045-051>053-192000-
WEST CENTRAL INDIANA

CITY           SKY/WX    TMP DP  RH WIND       PRES   REMARKS
GREENCASTLE +  CLOUDY    30  19  64 CALM      30.27F
LAFAYETTE      CLOUDY    28  25  88 W3        30.28F
TERRE HAUTE    MOSUNNY   33  22  63 CALM      30.27F

$$

INZ030>032-037>040-046>048-054>057-064-065-192000-
CENTRAL INDIANA

CITY           SKY/WX    TMP DP  RH WIND       PRES   REMARKS
ANDERSON       CLOUDY    28  21  74 CALM      30.27R
COLUMBUS       CLOUDY    28  25  86 CALM      30.27F
INDIANAPOLIS   CLOUDY    28  22  78 W3        30.26F
-EAGLE CREEK   CLOUDY    29  22  75 CALM      30.26F
KOKOMO *+      CLOUDY    28  25  86 W6        30.26S WCI  22
MT COMFORT *+  PTSUNNY   28  18  64 CALM      30.27S
SHELBYVILLE    CLOUDY    30  22  72 CALM      30.26F

$$

INZ033-034-041-042-049-050-058-059-192000-
EAST CENTRAL INDIANA

CITY           SKY/WX    TMP DP  RH WIND       PRES   REMARKS
MUNCIE         CLOUDY    29  23  78 W5        30.26R WCI  24

$$

INZ060-061-067>069-081>083-085>088-192000-
SOUTHWEST INDIANA

CITY           SKY/WX    TMP DP  RH WIND       PRES   REMARKS
EVANSVILLE     MOSUNNY   37  25  61 NE7       30.27F
HUNTINGBURG *+ MOSUNNY   34  21  60 NE6       30.27F WCI  29

$$

INZ062-063-066-070>080-084-089>092-192000-
SOUTH CENTRAL AND SOUTHEAST INDIANA

CITY           SKY/WX    TMP DP  RH WIND       PRES   REMARKS
BLOOMINGTON    CLOUDY    33  23  66 E7        30.25F WCI  27

$$



USA.gov is the U.S. government's official web portal to all federal, state and local government web resources and services.